Location: La Pernelle
(49.6188°N, 1.2999°W)
Time: 13:55:24
(UTC+00:00)

MetOp-B - Pass Details

Date: 12 June 2021
Orbit: 820 x 821 km, 98.7° (Epoch: 30 July)

Event Time Altitude Azimuth Distance (km) Brightness Sun altitude
Exits shadow 20:52:28 - 165° (SSE) 3,095 6.6 -5.6°
Reaches altitude 10° 20:54:11 10° 166° (SSE) 2,411 6.1 -5.7°
Maximum altitude 20:59:32 83° 254° (WSW) 834 4.3 -6.3°
Drops below altitude 10° 21:04:56 10° 344° (NNW) 2,429 7.8 -6.9°
Sets 21:07:18 0° 345° (NNW) 3,367 8.7 -7.2°
